Weather History for Almeria, Spain

Change the Weather History Date:

Tuesday, November 27, 2012

  Actual Average Record
Temperature  
Mean Temperature 59 °F -  
Max Temperature 63 °F 60 °F 78 °F (2002)
Min Temperature 55 °F 48 °F 48 °F (2002)
Degree Days  
Heating Degree Days 6    
Growing Degree Days 9 (Base 50)    
Moisture  
Dew Point 39 °F    
Average Humidity 46    
Maximum Humidity 94    
Minimum Humidity 26    
Precipitation  
Precipitation 0.00 in 0.03 in - ()
Sea Level Pressure  
Sea Level Pressure 29.72 in    
Wind  
Wind Speed 8 mph ()    
Max Wind Speed 22 mph    
Max Gust Speed 30 mph    
Visibility 6.6 miles    
Events      
Averages and records for this station are not official NWS values.
T = Trace of Precipitation, MM = Missing Value Source: Averaged Metar Reports

Daily Weather History Graph

Daily Weather History Graph

Search for Another Location

Airport:

Trip Planner

Search our weather history database for the weather conditions in past years. The results will help you decide how hot, cold, wet, or windy it might be!

Date:

Astronomy

Nov. 27, 2012 Rise Set
Actual Time 8:00 AM CET 5:54 PM CET
Civil Twilight 7:31 AM CET 6:22 PM CET
Nautical Twilight 6:59 AM CET 6:54 PM CET
Astronomical Twilight 6:28 AM CET 7:25 PM CET
Moon 5:15 PM CET (11/27) 6:52 AM CET (11/27)
Length of Visible Light 10h 50m
Length of Day
9h 53m
Waxing Gibbous, 99% of the Moon is Illuminated
Nov 27
Waxing Gibbous
Nov 28
Full
Dec 6
Last Quarter
Dec 13
New
Dec 20
First Quarter

Hourly Weather History & Observations

Time (CET) Temp. Dew Point Humidity Pressure Visibility Wind Dir Wind Speed Gust Speed Precip Events Conditions
1:00 AM 60 °F 59 °F 94% 29.80 in - West 2.3 mph - -  
5:00 AM 60.8 °F 55.4 °F 82% 29.71 in 5.0 mi WSW 4.6 mph - N/A   Partly Cloudy
5:30 AM 57.2 °F 51.8 °F 82% 29.74 in 6.2 mi WNW 3.5 mph - N/A   Partly Cloudy
6:00 AM 59.0 °F 44.6 °F 59% 29.71 in 6.2 mi NW 3.5 mph - N/A   Partly Cloudy
6:30 AM 57.2 °F 44.6 °F 63% 29.71 in 6.2 mi Variable 2.3 mph - N/A   Partly Cloudy
7:00 AM 57 °F 42 °F 46% 29.74 in 12 mi WNW 6.9 mph - -   Scattered Clouds
7:00 AM 59.0 °F 44.6 °F 59% 29.74 in 6.2 mi WNW 5.8 mph 17.3 mph N/A   Partly Cloudy
7:30 AM 59.0 °F 41.0 °F 51% 29.74 in 6.2 mi WNW 6.9 mph - N/A   Partly Cloudy
8:00 AM 59.0 °F 39.2 °F 48% 29.74 in 6.2 mi NW 11.5 mph - N/A   Scattered Clouds
8:30 AM 59.0 °F 37.4 °F 45% 29.74 in 6.2 mi NW 10.4 mph 21.9 mph N/A   Scattered Clouds
9:00 AM 59.0 °F 35.6 °F 42% 29.74 in 6.2 mi NW 13.8 mph - N/A   Scattered Clouds
9:30 AM 59.0 °F 33.8 °F 39% 29.74 in 6.2 mi NW 11.5 mph 25.3 mph N/A   Partly Cloudy
10:00 AM 60.8 °F 33.8 °F 36% 29.74 in 6.2 mi NNW 13.8 mph - N/A   Partly Cloudy
10:30 AM 62.6 °F 30.2 °F 30% 29.71 in 6.2 mi NNW 18.4 mph - N/A   Partly Cloudy
11:00 AM 62.6 °F 28.4 °F 27% 29.74 in 6.2 mi North 21.9 mph - N/A   Partly Cloudy
11:30 AM 64.4 °F 28.4 °F 26% 29.74 in 6.2 mi NNW 18.4 mph - N/A   Partly Cloudy
12:00 PM 64.4 °F 28.4 °F 26% 29.74 in 6.2 mi NW 16.1 mph - N/A   Partly Cloudy
12:30 PM 64.4 °F 35.6 °F 34% 29.74 in 6.2 mi West 12.7 mph - N/A   Partly Cloudy
1:00 PM 62 °F 39 °F 31% 29.74 in 25 mi SSW 17.3 mph - -   Scattered Clouds
1:00 PM 64.4 °F 39.2 °F 40% 29.74 in 6.2 mi SSW 17.3 mph - N/A   Partly Cloudy
1:30 PM 62.6 °F 42.8 °F 48% 29.71 in 6.2 mi South 11.5 mph - N/A   Partly Cloudy
2:00 PM 62.6 °F 42.8 °F 48% 29.71 in 6.2 mi South 9.2 mph - N/A   Partly Cloudy
2:30 PM 64.4 °F 41.0 °F 42% 29.71 in 6.2 mi South 9.2 mph - N/A   Partly Cloudy
3:00 PM 62.6 °F 41.0 °F 45% 29.71 in 6.2 mi SSW 9.2 mph - N/A   Partly Cloudy
3:30 PM 62.6 °F 42.8 °F 48% 29.68 in 6.2 mi SW 8.1 mph - N/A   Partly Cloudy
4:00 PM 62.6 °F 42.8 °F 48% 29.68 in 6.2 mi WSW 9.2 mph - N/A   Scattered Clouds
4:30 PM 60.8 °F 42.8 °F 52% 29.68 in 6.2 mi WSW 12.7 mph - N/A   Scattered Clouds
5:00 PM 60.8 °F 42.8 °F 52% 29.68 in 6.2 mi SW 11.5 mph - N/A   Scattered Clouds
5:30 PM 60.8 °F 42.8 °F 52% 29.68 in 6.2 mi WSW 11.5 mph - N/A   Scattered Clouds
6:00 PM 60.8 °F 42.8 °F 52% 29.68 in 6.2 mi West 5.8 mph - N/A   Scattered Clouds
6:30 PM 59.0 °F 37.4 °F 45% 29.71 in 6.2 mi West 5.8 mph - N/A   Scattered Clouds
7:00 PM 57 °F 32 °F 27% 29.72 in 16 mi NW 9.2 mph - -   Scattered Clouds
7:00 PM 59.0 °F 33.8 °F 39% 29.71 in 6.2 mi NW 9.2 mph - N/A   Scattered Clouds
7:30 PM 59.0 °F 33.8 °F 39% 29.71 in 6.2 mi NW 8.1 mph - N/A   Scattered Clouds
8:00 PM 57.2 °F 33.8 °F 41% 29.71 in 6.2 mi NW 12.7 mph 24.2 mph N/A   Scattered Clouds
8:30 PM 57.2 °F 33.8 °F 41% 29.71 in 6.2 mi NW 11.5 mph - N/A   Scattered Clouds
9:00 PM 57.2 °F 33.8 °F 41% 29.71 in 6.2 mi NW 17.3 mph 28.8 mph N/A   Scattered Clouds
9:30 PM 57.2 °F 32.0 °F 38% 29.71 in 6.2 mi NW 17.3 mph - N/A   Scattered Clouds
10:00 PM 57.2 °F 30.2 °F 36% 29.71 in 6.2 mi NW 18.4 mph 29.9 mph N/A   Scattered Clouds